Time,TemperatureF,DewpointF,PressureIn,WindDirection,WindDirectionDegrees,WindSpeedMPH,WindSpeedGustMPH,Humidity,HourlyPrecipIn,Conditions,Clouds,dailyrainin,SoftwareType,DateUTC
2013-01-23 00:23:00,-2.0,-99.9,30.16,West,270,10.0,17.0,-999,-99.99,,,-99.99,,2013-01-23 05:23:00,
2013-01-23 00:43:00,-2.0,-99.9,30.17,West,259,12.0,19.0,-999,-99.99,,,-99.99,,2013-01-23 05:43:00,
2013-01-23 01:53:00,-2.0,-99.9,30.16,West,265,8.0,17.0,-999,-99.99,,,-99.99,,2013-01-23 06:53:00,
2013-01-23 02:13:00,-1.0,-99.9,30.16,WSW,258,10.0,17.0,-999,-99.99,,,-99.99,,2013-01-23 07:13:00,
2013-01-23 03:23:00,-1.0,-99.9,30.15,West,263,8.0,16.0,-999,-99.99,,,-99.99,,2013-01-23 08:23:00,
2013-01-23 04:23:00,-1.0,-99.9,30.14,WSW,258,9.0,14.0,-999,-99.99,,,-99.99,,2013-01-23 09:23:00,
2013-01-23 04:44:00,-1.0,-99.9,30.14,West,259,8.0,14.0,-999,-99.99,,,-99.99,,2013-01-23 09:44:00,
2013-01-23 05:43:00,-1.0,-99.9,30.13,West,266,7.0,18.0,-999,-99.99,,,-99.99,,2013-01-23 10:43:00,
2013-01-23 06:53:00,-1.0,-99.9,30.10,WSW,253,11.0,17.0,-999,-99.99,,,-99.99,,2013-01-23 11:53:00,
2013-01-23 07:13:00,-1.0,-99.9,30.09,WSW,258,8.0,16.0,-999,-99.99,,,-99.99,,2013-01-23 12:13:00,
2013-01-23 07:43:00,-1.0,-99.9,30.09,WSW,246,10.0,19.0,-999,-99.99,,,-99.99,,2013-01-23 12:43:00,
2013-01-23 08:23:00,-1.0,-99.9,30.09,WSW,255,11.0,18.0,-999,-99.99,,,-99.99,,2013-01-23 13:23:00,
2013-01-23 08:53:00,-1.0,-99.9,30.07,WSW,254,11.0,16.0,-999,-99.99,,,-99.99,,2013-01-23 13:53:00,
2013-01-23 09:12:00,-1.0,-99.9,30.07,WSW,258,11.0,17.0,-999,-99.99,,,-99.99,,2013-01-23 14:12:00,
2013-01-23 10:43:00,1.0,-99.9,30.06,WSW,251,11.0,15.0,-999,-99.99,,,-99.99,,2013-01-23 15:43:00,
2013-01-23 11:23:00,3.0,-99.9,30.06,WSW,253,8.0,14.0,-999,-99.99,,,-99.99,,2013-01-23 16:23:00,
2013-01-23 11:53:00,8.0,-99.9,30.06,West,262,4.0,10.0,-999,-99.99,,,-99.99,,2013-01-23 16:53:00,
2013-01-23 12:13:00,8.0,-99.9,30.06,West,263,5.0,10.0,-999,-99.99,,,-99.99,,2013-01-23 17:13:00,
2013-01-23 12:53:00,8.0,-99.9,30.04,West,264,6.0,11.0,-999,-99.99,,,-99.99,,2013-01-23 17:53:00,
2013-01-23 13:24:00,9.0,-99.9,30.04,WSW,254,5.0,12.0,-999,-99.99,,,-99.99,,2013-01-23 18:24:00,
2013-01-23 13:33:00,9.0,-99.9,30.04,WSW,254,5.0,12.0,-999,-99.99,,,-99.99,,2013-01-23 18:33:00,
2013-01-23 13:44:00,10.0,-99.9,30.03,WNW,292,8.0,12.0,-999,-99.99,,,-99.99,,2013-01-23 18:44:00,
2013-01-23 14:23:00,10.0,-99.9,30.01,WSW,257,2.0,8.0,-999,-99.99,,,-99.99,,2013-01-23 19:23:00,
2013-01-23 14:43:00,11.0,-99.9,30.01,WNW,291,3.0,7.0,-999,-99.99,,,-99.99,,2013-01-23 19:43:00,
2013-01-23 15:54:00,10.0,-99.9,30.03,WNW,283,6.0,10.0,-999,-99.99,,,-99.99,,2013-01-23 20:54:00,
2013-01-23 16:12:00,10.0,-99.9,30.04,WNW,296,7.0,11.0,-999,-99.99,,,-99.99,,2013-01-23 21:12:00,
2013-01-23 17:23:00,9.0,-99.9,30.09,WNW,292,8.0,15.0,-999,-99.99,,,-99.99,,2013-01-23 22:23:00,
2013-01-23 17:43:00,9.0,-99.9,30.09,WNW,302,5.0,14.0,-999,-99.99,,,-99.99,,2013-01-23 22:43:00,
2013-01-23 18:23:00,8.0,-99.9,30.10,WNW,288,4.0,11.0,-999,-99.99,,,-99.99,,2013-01-23 23:23:00,
2013-01-23 18:43:00,9.0,-99.9,30.12,NW,324,9.0,14.0,-999,-99.99,,,-99.99,,2013-01-23 23:43:00,
2013-01-23 19:53:00,10.0,-99.9,30.17,NNW,334,13.0,28.0,-999,-99.99,,,-99.99,,2013-01-24 00:53:00,
2013-01-23 20:12:00,10.0,-99.9,30.19,NNW,342,15.0,29.0,-999,-99.99,,,-99.99,,2013-01-24 01:12:00,
2013-01-23 20:53:00,10.0,-99.9,30.22,NNW,338,11.0,25.0,-999,-99.99,,,-99.99,,2013-01-24 01:53:00,
2013-01-23 21:23:00,8.0,-99.9,30.25,NNW,334,16.0,26.0,-999,-99.99,,,-99.99,,2013-01-24 02:23:00,
2013-01-23 22:53:00,8.0,-99.9,30.31,NNW,327,15.0,26.0,-999,-99.99,,,-99.99,,2013-01-24 03:53:00,
2013-01-23 23:12:00,10.0,-99.9,30.32,North,4,13.0,29.0,-999,-99.99,,,-99.99,,2013-01-24 04:12:00,